Regional Weather Roundup
Issued by NWS

Home | Current Version | Previous Version | Graphics & Text | Print | Product List | Glossary On
Versions: 1 2 3 4 5 6 7 8 9 10 11 12 13 14 15 16 17 18 19 20 21 22 23 24 25 26 27 28 29 30 31 32 33 34 35 36 37 38 39 40 41 42 43 44 45 46 47 48 49 50
000
ASUS43 KIND 290709
RWRIN

WEATHER ROUNDUP FOR INDIANA
NATIONAL WEATHER SERVICE INDIANAPOLIS IN
300 AM EDT THU JUN 29 2017

NOTE: "FAIR" INDICATES FEW OR NO CLOUDS BELOW 12,000 FEET WITH NO
SIGNIFICANT WEATHER AND/OR OBSTRUCTIONS TO VISIBILITY.

* - STATION DOES NOT REPORT WEATHER SUCH AS PRECIPITATION OR FOG.

+ - STATION NOT QUALITY CONTROLLED BY THE NATIONAL WEATHER SERVICE.
    USE DATA WITH CAUTION...ESPECIALLY DEWPOINT AND RELATIVE
    HUMIDITY OBSERVATIONS.

INZ001>003-010>013-019-020-290800-
NORTHWEST INDIANA

CITY           SKY/WX    TMP DP  RH WIND       PRES   REMARKS
GARY /AIRPORT/ CLOUDY    69  63  80 E5        29.83S
KNOX *+        CLOUDY    72  50  46 S16G24    29.83F
LA PORTE +     CLOUDY    71  61  71 CALM      29.87S
MICHIGAN CITY+ CLOUDY    64  64 100 CALM      29.87F
MONTICELLO +   CLOUDY    72  59  63 S16G23    29.87F
RENSSELAER +   CLOUDY    73  59  60 S20G28    29.84F
VALPARAISO     CLOUDY    75  64  68 SW13      29.86R

$$

LMZ046-743>745-290800-
SOUTHERN LAKE MICHIGAN

STATION/POSITION TIME  TEMP    WIND        PRES    WAVE
                       AIR SEA DIR/SP/G            HT
                 (UTC) (F)     (DEG/KT/KT) (MB)    (FT)
BURNS HARBOR     0640   67      60/ 13/ 15 1011.2S
MICHIGAN CITY    0640   66      50/ 11/ 12   N/A
5NW MICH CITY    0700   66 65   90/ 12/ 14   N/A     1

$$

INZ004-005-014>016-021>024-290800-
NORTH CENTRAL INDIANA

CITY           SKY/WX    TMP DP  RH WIND       PRES   REMARKS
GOSHEN         LGT RAIN  72  58  61 SW14G23   29.88F
LOGANSPORT +   MOCLDY    70  59  68 S16G22    29.90F
PERU/GRISSOM   CLOUDY    71  59  64 SW18G24   29.89S
ROCHESTER +    CLOUDY    73  59  60 S12G20    29.89F
SOUTH BEND     CLOUDY    66  63  90 NE9       29.88R
WARSAW +       CLOUDY    72  55  56 SW9       29.89S

$$

INZ006>009-017-018-025>027-290800-
NORTHEAST INDIANA

CITY           SKY/WX    TMP DP  RH WIND       PRES   REMARKS
ANGOLA *+      PTCLDY    72  64  78 SW9       29.90S
AUBURN +       CLOUDY    72  52  49 SW7       29.91F
FORT WAYNE     CLOUDY    70  54  56 SW13      29.92F
HUNTINGTON +   CLOUDY    70  55  57 SW13      29.92S
KENDALLVILLE + CLOUDY    71  55  58 SW15G21   29.91S

$$

INZ028-029-035-036-043>045-051>053-290800-
WEST CENTRAL INDIANA

CITY           SKY/WX    TMP DP  RH WIND       PRES   REMARKS
CRAWFORDSVL +  PTCLDY    69  60  73 S12G18    29.94S
GREENCASTLE +  PTCLDY    72  59  64 S8        29.95F
LAFAYETTE      CLOUDY    72  61  68 SW8G17    29.90S
TERRE HAUTE    CLOUDY    73  60  63 S13       29.94F

$$

INZ030>032-037>040-046>048-054>057-064-065-290800-
CENTRAL INDIANA

CITY           SKY/WX    TMP DP  RH WIND       PRES   REMARKS
CP ATTERBURY + PTCLDY    68  55  64 S5        29.99F
FRANKFORT +    CLOUDY    72  61  69 SW6       29.94S
GREENWOOD *+   PTCLDY    69  54  59 S9        29.98F
INDIANAPOLIS   CLOUDY    69  57  65 S12       29.95F
-EAGLE CREEK   PTCLDY    70  56  61 S6        29.95F
KOKOMO +       CLOUDY    72  58  61 S15       29.93F
MARION +       CLOUDY    68  55  64 SW14G20   29.94F
MT COMFORT *+  CLOUDY    68  55  64 S9        29.98F
SHELBYVILLE    MOCLDY    68  55  63 S12       29.97F
ZIONSVILLE +   CLOUDY    68  57  67 S10       29.95F

$$

INZ033-034-041-042-049-050-058-059-290800-
EAST CENTRAL INDIANA

CITY           SKY/WX    TMP DP  RH WIND       PRES   REMARKS
MUNCIE         PTCLDY    72  54  53 S12       29.95F
RICHMOND +     PTCLDY    61  55  82 S9        30.01S

$$

INZ060-061-067>069-081>083-085>088-290800-
SOUTHWEST INDIANA

CITY           SKY/WX    TMP DP  RH WIND       PRES   REMARKS
EVANSVILLE     CLOUDY    73  62  68 S6        29.99F
HUNTINGBURG *+ CLOUDY    70  61  73 S7        30.00F
WASHINGTON +   CLOUDY    67  59  77 S6        29.98S

$$

INZ062-063-066-070>080-084-089>092-290800-
SOUTH CENTRAL AND SOUTHEAST INDIANA

CITY           SKY/WX    TMP DP  RH WIND       PRES   REMARKS
BEDFORD +      CLOUDY    68  55  64 S3        29.99F
BLOOMINGTON    PTCLDY    69  57  65 S9        29.99S
MADISON *+     CLOUDY    68  54  60 S5        30.04F
NORTH VERNON + CLOUDY    66  55  68 S9        30.01F
SEYMOUR +      PTCLDY    68  57  68 S6        30.00F

$$




USA.gov is the U.S. government's official web portal to all federal, state and local government web resources and services.